Flag for U.S.A. Weather past 2 weeks in Independence, Missouri, U.S.A.

Now
65 °F

Clear.


Feels Like: 65 °F
Forecast: 64 / 79 °F
Wind: 6 mph from North

Location: Lee's Summit Municipal Airport

Current Time: Jul 28, 2014 at 4:03:43 AM

Latest Report: Jul 28, 2014 at 2:53 AM


Visibility: 10 mi

Pressure: 30.12 "Hg

Humidity: 76%

Dew point: 57 °F

Location of IndependenceLocation

Historic Weather in Independence — Graph

°F

Independence temperature yesterday

Maximum temperature yesterday: 87 °F (at 12:53 PM)
Minimum temperature yesterday: 72 °F (at 11:53 PM)
Average temperature yesterday: 81 °F

Past Weeks' High & Low Weather Summary

 TemperatureHumidityPressure
High95 °F (Jul 22, 6:53 PM)93% (Jul 14, 5:53 AM)30.14 "Hg (Jul 14, 5:53 AM)
Low55 °F (Jul 15, 5:53 AM)32% (Jul 27, 4:53 PM)29.76 "Hg (Jul 25, 7:53 PM)
Average75 °F67%30.00 "Hg
* Reported Jul 13 2:53 AM — Jul 28 2:53 AM, Independence, Weather by CustomWeather, © 2014

Note: Actual official high and low records may vary slightly from our data, if they occured in-between our weather recording intervals... More about our weather records

Advertising

Independence weather history for previous 24 hours

 ConditionsComfort  
Time TempWeatherWind HumidityBarometerVisibility
2:53 AM
Jul 28
65 °FClear.6 mph76%30.12 "Hg10 mi
1:53 AM67 °FClear.8 mph71%30.12 "Hg10 mi
12:53 AM69 °FClear.8 mph66%30.11 "Hg10 mi
11:53 PM
Jul 27
72 °FClear.10 mph61%30.11 "Hg10 mi
10:53 PM73 °FClear.9 mph59%30.09 "Hg10 mi
9:53 PM73 °FClear.8 mph59%30.07 "Hg10 mi
8:53 PM77 °FSunny.10 mph52%30.05 "Hg10 mi
7:53 PM81 °FSunny.14 mph42%30.03 "Hg10 mi
6:53 PM83 °FSunny.14 mph40%30.03 "Hg10 mi
5:53 PM85 °FSunny.15 mph37%30.03 "Hg10 mi
4:53 PM86 °FSunny.18 mph32%30.02 "Hg10 mi
3:53 PM87 °FSunny.15 mph35%30.02 "Hg10 mi
2:53 PM86 °FSunny.9 mph39%30.02 "Hg10 mi
1:53 PM86 °FSunny.18 mph33%30.02 "Hg10 mi
12:53 PM87 °FSunny.18 mph33%30.01 "Hg10 mi
11:53 AM85 °FSunny.12 mph42%30.02 "Hg10 mi
10:53 AM84 °FPassing clouds.14 mph59%30.02 "Hg10 mi
9:53 AM82 °FSunny.13 mph65%30.01 "Hg10 mi
8:53 AM81 °FSunny.9 mph72%29.99 "Hg10 mi
7:53 AM78 °FSunny.8 mph82%29.96 "Hg10 mi
6:53 AM77 °FPassing clouds.5 mph88%29.94 "Hg10 mi
5:53 AM77 °FClear.7 mph88%29.92 "Hg10 mi
4:53 AM78 °FClear.7 mph84%29.90 "Hg10 mi
Weather by CustomWeather, © 2014

See weather overviewHow to use our weather pages